Time,TemperatureF,DewpointF,PressureIn,WindDirection,WindDirectionDegrees,WindSpeedMPH,WindSpeedGustMPH,Humidity,HourlyPrecipIn,Conditions,Clouds,dailyrainin,SoftwareType,DateUTC
2013-07-15 00:21:00,54.0,54.0,-100.00,ENE,77,0.0,0.0,100,0.00,,,0.00,,2013-07-15 07:21:00,
2013-07-15 00:43:00,53.0,53.0,-100.00,ENE,77,0.0,0.0,100,0.00,,,0.00,,2013-07-15 07:43:00,
2013-07-15 00:53:00,53.0,53.0,-100.00,ENE,77,0.0,0.0,100,0.00,,,0.00,,2013-07-15 07:53:00,
2013-07-15 01:01:00,52.0,52.0,-100.00,ENE,77,0.0,0.0,100,0.00,,,0.00,,2013-07-15 08:01:00,
2013-07-15 01:11:00,52.0,52.0,-100.00,ENE,77,0.0,0.0,100,0.00,,,0.00,,2013-07-15 08:11:00,
2013-07-15 01:22:00,51.0,51.0,-100.00,ENE,77,0.0,0.0,100,0.00,,,0.00,,2013-07-15 08:22:00,
2013-07-15 01:32:00,51.0,51.0,-100.00,ENE,77,0.0,0.0,100,0.00,,,0.00,,2013-07-15 08:32:00,
2013-07-15 01:43:00,51.0,51.0,-100.00,ENE,77,0.0,0.0,100,0.00,,,0.00,,2013-07-15 08:43:00,
2013-07-15 01:53:00,50.0,50.0,-100.00,ENE,77,0.0,0.0,100,0.00,,,0.00,,2013-07-15 08:53:00,
2013-07-15 02:01:00,50.0,50.0,-100.00,ENE,77,0.0,0.0,100,0.00,,,0.00,,2013-07-15 09:01:00,
2013-07-15 02:11:00,50.0,50.0,-100.00,ENE,77,0.0,0.0,100,0.00,,,0.00,,2013-07-15 09:11:00,
2013-07-15 02:22:00,49.0,49.0,-100.00,ENE,77,0.0,0.0,100,0.00,,,0.00,,2013-07-15 09:22:00,
2013-07-15 02:32:00,49.0,49.0,-100.00,ENE,77,0.0,0.0,100,0.00,,,0.00,,2013-07-15 09:32:00,
2013-07-15 02:42:00,49.0,49.0,-100.00,ENE,77,0.0,0.0,100,0.00,,,0.00,,2013-07-15 09:42:00,
2013-07-15 02:52:00,49.0,49.0,-100.00,ENE,77,0.0,0.0,100,0.00,,,0.00,,2013-07-15 09:52:00,
2013-07-15 03:01:00,47.0,47.0,-100.00,ENE,77,0.0,0.0,100,0.00,,,0.00,,2013-07-15 10:01:00,
2013-07-15 03:11:00,48.0,48.0,-100.00,ENE,77,0.0,0.0,100,0.00,,,0.00,,2013-07-15 10:11:00,
2013-07-15 03:32:00,48.0,48.0,-100.00,ENE,77,0.0,0.0,100,0.00,,,0.00,,2013-07-15 10:32:00,
2013-07-15 03:42:00,47.0,47.0,-100.00,ENE,77,0.0,0.0,100,0.00,,,0.00,,2013-07-15 10:42:00,
2013-07-15 03:52:00,47.0,47.0,-100.00,ENE,77,0.0,0.0,100,0.00,,,0.00,,2013-07-15 10:52:00,
2013-07-15 04:01:00,47.0,47.0,-100.00,ENE,77,0.0,0.0,100,0.00,,,0.00,,2013-07-15 11:01:00,
2013-07-15 04:11:00,47.0,47.0,-100.00,ENE,77,0.0,0.0,100,0.00,,,0.00,,2013-07-15 11:11:00,
2013-07-15 04:31:00,46.0,46.0,-100.00,ENE,77,0.0,0.0,100,0.00,,,0.00,,2013-07-15 11:31:00,
2013-07-15 04:42:00,46.0,46.0,-100.00,ENE,77,0.0,0.0,100,0.00,,,0.00,,2013-07-15 11:42:00,
2013-07-15 05:01:00,46.0,46.0,-100.00,ENE,77,0.0,0.0,100,0.00,,,0.00,,2013-07-15 12:01:00,
2013-07-15 05:32:00,45.0,45.0,-100.00,ENE,77,0.0,0.0,100,0.00,,,0.00,,2013-07-15 12:32:00,
2013-07-15 05:42:00,45.0,45.0,-100.00,ENE,77,0.0,0.0,100,0.00,,,0.00,,2013-07-15 12:42:00,
2013-07-15 06:01:00,44.0,44.0,-100.00,ENE,77,0.0,0.0,100,0.00,,,0.00,,2013-07-15 13:01:00,
2013-07-15 06:11:00,44.0,44.0,-100.00,ENE,77,0.0,0.0,100,0.00,,,0.00,,2013-07-15 13:11:00,
2013-07-15 06:32:00,45.0,45.0,-100.00,ENE,77,0.0,0.0,100,0.00,,,0.00,,2013-07-15 13:32:00,
2013-07-15 06:43:00,45.0,45.0,-100.00,ENE,77,0.0,0.0,100,0.00,,,0.00,,2013-07-15 13:43:00,
2013-07-15 06:53:00,45.0,45.0,-100.00,ENE,77,0.0,0.0,100,0.00,,,0.00,,2013-07-15 13:53:00,
2013-07-15 07:02:00,46.0,46.0,-100.00,ENE,77,0.0,0.0,100,0.00,,,0.00,,2013-07-15 14:02:00,
2013-07-15 07:11:00,47.0,47.0,-100.00,ENE,77,0.0,0.0,100,0.02,,,0.02,,2013-07-15 14:11:00,
2013-07-15 07:22:00,50.0,50.0,-100.00,ENE,77,0.0,0.0,100,0.02,,,0.02,,2013-07-15 14:22:00,
2013-07-15 07:33:00,52.0,52.0,-100.00,ENE,77,0.0,0.0,100,0.02,,,0.02,,2013-07-15 14:33:00,
2013-07-15 23:43:00,57.0,57.0,-100.00,ENE,77,0.0,0.0,100,0.00,,,0.00,,2013-07-16 06:43:00,
2013-07-15 23:52:00,57.0,57.0,-100.00,ENE,77,0.0,0.0,100,0.00,,,0.00,,2013-07-16 06:52:00,